Time,TemperatureF,DewpointF,PressureIn,WindDirection,WindDirectionDegrees,WindSpeedMPH,WindSpeedGustMPH,Humidity,HourlyPrecipIn,Conditions,Clouds,dailyrainin,SoftwareType,DateUTC
2013-03-06 00:04:00,53.1,36.7,29.91,SW,225,3.5,5.8,54,0.00,,,0.00,,2013-03-05 23:04:00,
2013-03-06 00:09:00,53.1,36.7,29.91,SW,225,5.3,5.3,54,0.00,,,0.00,,2013-03-05 23:09:00,
2013-03-06 00:14:00,53.1,36.7,29.91,North,0,4.0,6.2,54,0.00,,,0.00,,2013-03-05 23:14:00,
2013-03-06 00:19:00,53.1,36.7,29.88,SW,225,1.7,3.5,54,0.00,,,0.00,,2013-03-05 23:19:00,
2013-03-06 00:24:00,52.9,36.5,29.88,North,0,2.2,2.2,54,0.00,,,0.00,,2013-03-05 23:24:00,
2013-03-06 00:29:00,53.1,36.7,29.88,NNE,22,3.5,4.4,54,0.00,,,0.00,,2013-03-05 23:29:00,
2013-03-06 00:34:00,53.1,36.7,29.88,SW,225,3.1,5.8,54,0.00,,,0.00,,2013-03-05 23:34:00,
2013-03-06 00:39:00,53.2,36.9,29.85,SW,225,3.5,4.0,54,0.00,,,0.00,,2013-03-05 23:39:00,
2013-03-06 00:44:00,53.4,36.7,29.85,North,0,3.1,4.4,53,0.00,,,0.00,,2013-03-05 23:44:00,
2013-03-06 00:49:00,53.6,36.3,29.85,SW,225,4.4,4.9,52,0.00,,,0.00,,2013-03-05 23:49:00,
2013-03-06 00:53:00,54.1,35.8,29.85,SW,225,4.9,4.9,50,0.00,,,0.00,,2013-03-05 23:53:00,
2013-03-06 00:58:00,54.3,36.0,29.88,SW,225,2.2,5.3,50,0.00,,,0.00,,2013-03-05 23:58:00,
2013-03-06 01:03:00,54.5,36.1,29.88,North,0,1.3,2.6,50,0.00,,,0.00,,2013-03-06 00:03:00,
2013-03-06 01:08:00,54.7,35.8,29.88,North,0,2.6,3.5,49,0.00,,,0.00,,2013-03-06 00:08:00,
2013-03-06 01:13:00,54.7,35.8,29.88,East,90,1.7,1.7,49,0.00,,,0.00,,2013-03-06 00:13:00,
2013-03-06 01:18:00,54.7,35.8,29.88,West,270,3.1,5.3,49,0.00,,,0.00,,2013-03-06 00:18:00,
2013-03-06 01:23:00,54.7,35.8,29.88,NNE,22,2.6,4.0,49,0.00,,,0.00,,2013-03-06 00:23:00,
2013-03-06 01:28:00,54.7,35.8,29.88,North,0,3.1,5.3,49,0.00,,,0.00,,2013-03-06 00:28:00,
2013-03-06 01:33:00,54.5,36.1,29.88,SW,225,2.6,5.8,50,0.00,,,0.00,,2013-03-06 00:33:00,
2013-03-06 01:38:00,54.7,35.8,29.85,WSW,247,3.1,5.8,49,0.00,,,0.00,,2013-03-06 00:38:00,
2013-03-06 01:43:00,54.9,36.0,29.85,SW,225,4.4,4.4,49,0.00,,,0.00,,2013-03-06 00:43:00,
2013-03-06 01:48:00,54.9,36.0,29.85,NE,45,3.5,6.2,49,0.00,,,0.00,,2013-03-06 00:48:00,
2013-03-06 01:53:00,54.9,36.0,29.85,NW,315,4.0,4.9,49,0.00,,,0.00,,2013-03-06 00:53:00,
2013-03-06 01:58:00,54.9,36.0,29.85,NE,45,1.3,4.4,49,0.00,,,0.00,,2013-03-06 00:58:00,
2013-03-06 02:03:00,54.9,36.0,29.85,North,0,1.7,2.2,49,0.00,,,0.00,,2013-03-06 01:03:00,
2013-03-06 02:08:00,54.7,36.3,29.85,NE,45,2.2,2.2,50,0.00,,,0.00,,2013-03-06 01:08:00,
2013-03-06 02:13:00,54.5,36.1,29.85,East,90,1.3,2.2,50,0.00,,,0.00,,2013-03-06 01:13:00,
2013-03-06 02:18:00,54.3,36.0,29.85,North,0,2.2,3.1,50,0.00,,,0.00,,2013-03-06 01:18:00,
2013-03-06 02:23:00,54.3,36.0,29.85,North,0,2.2,3.1,50,0.00,,,0.00,,2013-03-06 01:23:00,
2013-03-06 02:28:00,54.0,36.7,29.85,NW,315,2.6,4.9,52,0.00,,,0.00,,2013-03-06 01:28:00,
2013-03-06 02:33:00,54.0,36.7,29.85,WNW,292,3.5,4.9,52,0.00,,,0.00,,2013-03-06 01:33:00,
2013-03-06 02:38:00,54.0,36.7,29.82,North,0,4.4,7.6,52,0.00,,,0.00,,2013-03-06 01:38:00,
2013-03-06 02:43:00,54.0,36.7,29.82,West,270,3.5,3.5,52,0.00,,,0.00,,2013-03-06 01:43:00,
2013-03-06 02:48:00,54.0,36.7,29.85,NE,45,1.7,3.5,52,0.00,,,0.00,,2013-03-06 01:48:00,
2013-03-06 02:53:00,54.0,36.7,29.85,North,0,3.5,3.5,52,0.00,,,0.00,,2013-03-06 01:53:00,
2013-03-06 03:03:00,54.1,36.9,29.82,NNE,22,3.1,5.8,52,0.00,,,0.00,,2013-03-06 02:03:00,
2013-03-06 03:08:00,54.3,37.0,29.85,SW,225,2.6,2.6,52,0.00,,,0.00,,2013-03-06 02:08:00,
2013-03-06 03:13:00,54.1,36.9,29.85,North,0,1.3,2.2,52,0.00,,,0.00,,2013-03-06 02:13:00,
2013-03-06 03:18:00,54.0,36.7,29.85,South,180,0.8,1.3,52,0.00,,,0.00,,2013-03-06 02:18:00,
2013-03-06 03:23:00,54.0,36.7,29.85,South,180,0.8,1.3,52,0.00,,,0.00,,2013-03-06 02:23:00,
2013-03-06 03:28:00,53.6,36.9,29.85,NE,45,1.7,1.7,53,0.00,,,0.00,,2013-03-06 02:28:00,
2013-03-06 03:33:00,53.4,37.0,29.85,ENE,67,0.4,2.2,54,0.00,,,0.00,,2013-03-06 02:33:00,
2013-03-06 03:38:00,53.1,36.7,29.88,North,0,1.3,0.0,54,0.00,,,0.00,,2013-03-06 02:38:00,
2013-03-06 03:43:00,53.1,37.2,29.88,North,0,3.5,5.3,55,0.00,,,0.00,,2013-03-06 02:43:00,
2013-03-06 03:48:00,52.9,37.6,29.85,NNE,22,2.2,3.5,56,0.00,,,0.00,,2013-03-06 02:48:00,
2013-03-06 03:53:00,52.7,37.8,29.85,North,0,3.5,4.0,57,0.00,,,0.00,,2013-03-06 02:53:00,
2013-03-06 03:58:00,52.7,38.3,29.85,North,0,4.0,4.4,58,0.00,,,0.00,,2013-03-06 02:58:00,
2013-03-06 04:03:00,52.7,38.3,29.85,NNE,22,3.1,6.2,58,0.00,,,0.00,,2013-03-06 03:03:00,
2013-03-06 04:08:00,52.7,38.3,29.85,North,0,4.0,7.6,58,0.00,,,0.00,,2013-03-06 03:08:00,
2013-03-06 04:13:00,52.7,38.3,29.85,North,0,4.0,4.0,58,0.00,,,0.00,,2013-03-06 03:13:00,
2013-03-06 04:18:00,52.5,38.1,29.85,North,0,2.6,2.6,58,0.00,,,0.00,,2013-03-06 03:18:00,
2013-03-06 04:23:00,52.5,38.1,29.85,North,0,2.6,2.6,58,0.00,,,0.00,,2013-03-06 03:23:00,
2013-03-06 04:28:00,52.3,38.3,29.85,North,0,2.2,2.2,59,0.00,,,0.00,,2013-03-06 03:28:00,
2013-03-06 04:33:00,52.2,38.1,29.85,SW,225,3.1,3.5,59,0.00,,,0.00,,2013-03-06 03:33:00,
2013-03-06 04:38:00,52.3,38.3,29.85,North,0,3.5,5.3,59,0.00,,,0.00,,2013-03-06 03:38:00,
2013-03-06 04:43:00,52.3,38.3,29.85,North,0,3.1,3.5,59,-99.99,,,0.00,,2013-03-06 03:43:00,
2013-03-06 04:48:00,52.3,38.3,29.85,North,0,2.6,3.5,59,-99.99,,,0.00,,2013-03-06 03:48:00,
2013-03-06 04:53:00,52.5,38.1,29.85,North,0,3.5,5.8,58,-99.99,,,0.00,,2013-03-06 03:53:00,
2013-03-06 04:58:00,52.5,38.1,29.82,SW,225,4.0,4.0,58,-99.99,,,0.00,,2013-03-06 03:58:00,
2013-03-06 05:03:00,52.7,37.8,29.82,WSW,247,3.5,3.5,57,-99.99,,,0.00,,2013-03-06 04:03:00,
2013-03-06 05:08:00,52.9,37.6,29.82,WSW,247,4.9,4.9,56,-99.99,,,0.00,,2013-03-06 04:08:00,
2013-03-06 05:13:00,53.1,37.8,29.82,SW,225,2.6,3.1,56,-99.99,,,0.00,,2013-03-06 04:13:00,
2013-03-06 05:18:00,53.1,37.8,29.79,SW,225,2.2,5.3,56,-99.99,,,0.00,,2013-03-06 04:18:00,
2013-03-06 05:23:00,53.4,37.0,29.79,West,270,4.0,5.8,54,-99.99,,,0.00,,2013-03-06 04:23:00,
2013-03-06 05:28:00,53.8,36.9,29.79,SW,225,4.9,4.9,53,-99.99,,,0.00,,2013-03-06 04:28:00,
2013-03-06 05:33:00,54.1,37.2,29.79,North,0,2.2,5.3,53,-99.99,,,0.00,,2013-03-06 04:33:00,
2013-03-06 05:38:00,54.3,37.0,29.79,North,0,4.0,5.3,52,-99.99,,,0.00,,2013-03-06 04:38:00,
2013-03-06 05:43:00,54.5,37.2,29.79,North,0,4.0,4.0,52,-99.99,,,0.00,,2013-03-06 04:43:00,
2013-03-06 05:48:00,54.5,37.2,29.79,North,0,3.5,6.2,52,-99.99,,,0.00,,2013-03-06 04:48:00,
2013-03-06 05:53:00,54.5,37.2,29.79,East,90,3.1,6.7,52,-99.99,,,0.00,,2013-03-06 04:53:00,
2013-03-06 05:58:00,54.7,36.9,29.79,SW,225,2.6,4.9,51,-99.99,,,0.00,,2013-03-06 04:58:00,
2013-03-06 06:03:00,54.9,37.0,29.79,NW,315,4.4,7.6,51,-99.99,,,0.00,,2013-03-06 05:03:00,
2013-03-06 06:08:00,54.9,36.5,29.76,SW,225,4.9,8.0,50,-99.99,,,0.00,,2013-03-06 05:08:00,
2013-03-06 06:13:00,55.0,37.2,29.76,SW,225,4.9,8.9,51,-99.99,,,0.00,,2013-03-06 05:13:00,
2013-03-06 06:18:00,54.9,37.0,29.76,East,90,4.0,4.0,51,-99.99,,,0.00,,2013-03-06 05:18:00,
2013-03-06 06:28:00,54.9,37.0,29.79,North,0,1.7,3.1,51,-99.99,,,0.00,,2013-03-06 05:28:00,
2013-03-06 06:33:00,55.0,37.2,29.79,North,0,2.2,2.6,51,-99.99,,,0.00,,2013-03-06 05:33:00,
2013-03-06 06:38:00,55.0,37.2,29.79,NW,315,2.6,2.6,51,-99.99,,,0.00,,2013-03-06 05:38:00,
2013-03-06 06:43:00,55.0,37.6,29.79,NE,45,3.5,4.4,52,-99.99,,,0.00,,2013-03-06 05:43:00,
2013-03-06 06:48:00,55.0,37.6,29.79,North,0,3.1,4.0,52,-99.99,,,0.00,,2013-03-06 05:48:00,
2013-03-06 06:53:00,55.0,37.6,29.79,North,0,2.6,8.0,52,-99.99,,,0.00,,2013-03-06 05:53:00,
2013-03-06 06:58:00,55.0,37.6,29.79,North,0,2.2,2.2,52,-99.99,,,0.00,,2013-03-06 05:58:00,
2013-03-06 07:03:00,55.0,37.6,29.79,North,0,2.6,3.1,52,-99.99,,,0.00,,2013-03-06 06:03:00,
2013-03-06 07:08:00,54.9,37.4,29.79,North,0,4.9,4.9,52,-99.99,,,0.00,,2013-03-06 06:08:00,
2013-03-06 07:13:00,55.0,37.6,29.79,North,0,4.4,4.9,52,-99.99,,,0.00,,2013-03-06 06:13:00,
2013-03-06 07:18:00,55.0,37.6,29.76,NNE,22,3.1,5.3,52,-99.99,,,0.00,,2013-03-06 06:18:00,
2013-03-06 07:23:00,55.0,37.6,29.76,North,0,3.5,8.5,52,-99.99,,,0.00,,2013-03-06 06:23:00,
2013-03-06 07:28:00,55.0,38.1,29.79,North,0,3.1,4.4,53,-99.99,,,0.00,,2013-03-06 06:28:00,
2013-03-06 07:38:00,55.4,38.8,29.76,NNE,22,8.0,11.1,54,-99.99,,,0.00,,2013-03-06 06:38:00,
2013-03-06 07:43:00,55.6,39.0,29.76,NW,315,5.8,10.2,54,-99.99,,,0.00,,2013-03-06 06:43:00,
2013-03-06 07:48:00,55.8,39.2,29.79,SW,225,4.9,4.9,54,-99.99,,,0.00,,2013-03-06 06:48:00,
2013-03-06 07:53:00,55.8,39.7,29.79,East,90,3.1,4.9,55,-99.99,,,0.00,,2013-03-06 06:53:00,
2013-03-06 07:58:00,55.9,39.9,29.76,SW,225,5.8,9.8,55,-99.99,,,0.00,,2013-03-06 06:58:00,
2013-03-06 08:03:00,55.9,39.9,29.76,East,90,1.7,3.5,55,-99.99,,,0.00,,2013-03-06 07:03:00,
2013-03-06 08:08:00,55.9,40.3,29.79,East,90,1.7,3.1,56,-99.99,,,0.00,,2013-03-06 07:08:00,
2013-03-06 08:13:00,56.1,40.5,29.79,North,0,4.4,8.9,56,-99.99,,,0.00,,2013-03-06 07:13:00,
2013-03-06 08:18:00,56.1,41.0,29.79,NE,45,3.1,5.3,57,-99.99,,,0.00,,2013-03-06 07:18:00,
2013-03-06 08:23:00,56.1,41.0,29.79,SW,225,4.4,5.3,57,-99.99,,,0.00,,2013-03-06 07:23:00,
2013-03-06 08:28:00,56.1,41.4,29.79,SW,225,4.4,5.8,58,-99.99,,,0.00,,2013-03-06 07:28:00,
2013-03-06 08:32:00,55.9,41.7,29.79,NE,45,3.5,3.5,59,-99.99,,,0.00,,2013-03-06 07:32:00,
2013-03-06 08:37:00,55.8,41.5,29.79,SW,225,3.1,8.5,59,-99.99,,,0.00,,2013-03-06 07:37:00,
2013-03-06 08:42:00,55.8,41.9,29.79,North,0,4.4,4.4,60,-99.99,,,0.00,,2013-03-06 07:42:00,
2013-03-06 08:47:00,55.6,42.3,29.79,ENE,67,4.4,4.4,61,-99.99,,,0.00,,2013-03-06 07:47:00,
2013-03-06 08:52:00,55.6,42.3,29.79,WNW,292,2.6,2.6,61,-99.99,,,0.00,,2013-03-06 07:52:00,
2013-03-06 08:57:00,55.6,43.2,29.79,SW,225,4.4,7.6,63,-99.99,,,0.00,,2013-03-06 07:57:00,
2013-03-06 09:02:00,55.6,43.2,29.79,East,90,3.1,3.1,63,-99.99,,,0.00,,2013-03-06 08:02:00,
2013-03-06 09:07:00,55.6,43.5,29.79,East,90,3.1,4.0,64,0.00,,,0.00,,2013-03-06 08:07:00,
2013-03-06 09:12:00,55.6,43.9,29.79,NNW,337,2.2,6.2,65,0.00,,,0.00,,2013-03-06 08:12:00,
2013-03-06 09:17:00,55.6,43.9,29.79,NE,45,2.6,5.3,65,0.00,,,0.00,,2013-03-06 08:17:00,
2013-03-06 09:22:00,55.6,44.2,29.79,SW,225,3.1,4.9,66,0.00,,,0.00,,2013-03-06 08:22:00,
2013-03-06 09:27:00,55.6,44.2,29.76,NNE,22,5.3,9.3,66,0.00,,,0.00,,2013-03-06 08:27:00,
2013-03-06 09:32:00,55.8,44.4,29.76,South,180,4.0,5.8,66,0.00,,,0.00,,2013-03-06 08:32:00,
2013-03-06 09:37:00,55.8,44.4,29.76,SW,225,4.4,7.6,66,0.00,,,0.00,,2013-03-06 08:37:00,
2013-03-06 09:42:00,55.9,45.0,29.76,NNE,22,4.4,8.9,67,0.00,,,0.00,,2013-03-06 08:42:00,
2013-03-06 09:47:00,55.9,45.0,29.76,NE,45,2.6,4.4,67,0.00,,,0.00,,2013-03-06 08:47:00,
2013-03-06 09:52:00,55.9,45.0,29.76,SW,225,4.4,9.3,67,0.00,,,0.00,,2013-03-06 08:52:00,
2013-03-06 09:57:00,56.1,45.1,29.76,North,0,3.5,4.9,67,0.00,,,0.00,,2013-03-06 08:57:00,
2013-03-06 10:02:00,56.1,45.1,29.76,NE,45,3.5,3.5,67,0.00,,,0.00,,2013-03-06 09:02:00,
2013-03-06 10:07:00,56.1,44.8,29.76,North,0,2.6,8.9,66,0.00,,,0.00,,2013-03-06 09:07:00,
2013-03-06 10:12:00,56.1,44.4,29.76,North,0,4.9,4.9,65,0.00,,,0.00,,2013-03-06 09:12:00,
2013-03-06 10:17:00,56.3,44.6,29.73,SSE,157,2.6,4.9,65,0.00,,,0.00,,2013-03-06 09:17:00,
2013-03-06 10:22:00,56.3,44.2,29.73,NNW,337,4.0,5.3,64,0.00,,,0.00,,2013-03-06 09:22:00,
2013-03-06 10:27:00,56.3,44.2,29.76,WSW,247,3.5,9.3,64,0.00,,,0.00,,2013-03-06 09:27:00,
2013-03-06 10:32:00,56.1,44.1,29.76,NW,315,4.4,7.6,64,0.00,,,0.00,,2013-03-06 09:32:00,
2013-03-06 10:37:00,56.3,44.2,29.76,South,180,3.1,3.5,64,-99.99,,,0.00,,2013-03-06 09:37:00,
2013-03-06 10:42:00,56.3,44.2,29.76,NE,45,5.3,5.8,64,-99.99,,,0.00,,2013-03-06 09:42:00,
2013-03-06 10:47:00,56.5,44.4,29.76,South,180,6.7,10.7,64,-99.99,,,0.00,,2013-03-06 09:47:00,
2013-03-06 10:52:00,56.5,44.4,29.76,South,180,4.9,6.2,64,-99.99,,,0.00,,2013-03-06 09:52:00,
2013-03-06 10:57:00,56.3,44.2,29.76,SW,225,5.3,11.1,64,-99.99,,,0.00,,2013-03-06 09:57:00,
2013-03-06 11:02:00,56.1,44.8,29.76,North,0,4.0,4.9,66,-99.99,,,0.00,,2013-03-06 10:02:00,
2013-03-06 11:07:00,55.9,45.0,29.76,SW,225,4.4,11.6,67,-99.99,,,0.00,,2013-03-06 10:07:00,
2013-03-06 11:12:00,55.8,45.3,29.76,East,90,4.0,4.4,68,-99.99,,,0.00,,2013-03-06 10:12:00,
2013-03-06 11:17:00,55.4,45.7,29.73,SW,225,7.6,13.4,70,-99.99,,,0.00,,2013-03-06 10:17:00,
2013-03-06 11:22:00,55.0,45.7,29.73,SW,225,4.9,10.7,71,-99.99,,,0.00,,2013-03-06 10:22:00,
2013-03-06 11:27:00,54.7,46.0,29.73,North,0,3.1,3.5,73,-99.99,,,0.00,,2013-03-06 10:27:00,
2013-03-06 11:32:00,54.1,46.2,29.73,SW,225,3.1,4.4,75,-99.99,,,0.00,,2013-03-06 10:32:00,
2013-03-06 11:37:00,53.8,46.6,29.76,SW,225,3.5,4.4,77,-99.99,,,0.00,,2013-03-06 10:37:00,
2013-03-06 11:42:00,53.6,47.1,29.76,South,180,3.5,3.5,79,-99.99,,,0.00,,2013-03-06 10:42:00,
2013-03-06 11:47:00,53.2,47.1,29.76,East,90,2.6,2.6,80,-99.99,,,0.00,,2013-03-06 10:47:00,
2013-03-06 11:52:00,52.9,47.5,29.76,SW,225,3.5,3.5,82,-99.99,,,0.00,,2013-03-06 10:52:00,
2013-03-06 11:57:00,52.7,47.7,29.76,SW,225,3.1,3.1,83,-99.99,,,0.00,,2013-03-06 10:57:00,
2013-03-06 12:02:00,52.3,47.8,29.76,North,0,2.2,5.8,85,-99.99,,,0.00,,2013-03-06 11:02:00,
2013-03-06 12:07:00,52.0,48.2,29.76,WNW,292,4.4,5.3,87,-99.99,,,0.00,,2013-03-06 11:07:00,
2013-03-06 12:12:00,51.8,48.6,29.76,SW,225,4.9,4.9,89,-99.99,,,0.00,,2013-03-06 11:12:00,
2013-03-06 12:22:00,51.3,48.9,29.73,North,0,5.3,8.9,92,-99.99,,,0.09,,2013-03-06 11:22:00,
2013-03-06 12:27:00,51.1,49.3,29.73,North,0,4.4,8.9,94,-99.99,,,0.09,,2013-03-06 11:27:00,
2013-03-06 12:32:00,50.9,49.5,29.73,North,0,5.8,5.8,95,-99.99,,,0.09,,2013-03-06 11:32:00,
2013-03-06 12:42:00,50.7,50.0,29.73,North,0,3.5,5.3,98,-99.99,,,0.12,,2013-03-06 11:42:00,
2013-03-06 12:47:00,50.5,50.2,29.73,North,0,3.5,6.2,99,-99.99,,,0.14,,2013-03-06 11:47:00,
2013-03-06 12:52:00,50.5,50.2,29.73,North,0,3.5,6.2,99,-99.99,,,0.14,,2013-03-06 11:52:00,
2013-03-06 12:57:00,50.5,50.2,29.73,SW,225,3.5,7.6,99,-99.99,,,0.14,,2013-03-06 11:57:00,
2013-03-06 13:02:00,50.4,50.0,29.73,North,0,6.2,6.2,99,-99.99,,,0.14,,2013-03-06 12:02:00,
2013-03-06 13:07:00,50.4,50.0,29.73,North,0,4.9,9.3,99,0.04,,,0.18,,2013-03-06 12:07:00,
2013-03-06 13:12:00,50.2,49.8,29.73,South,180,4.9,4.9,99,0.06,,,0.20,,2013-03-06 12:12:00,
2013-03-06 13:17:00,50.2,49.8,29.73,NE,45,3.5,3.5,99,0.09,,,0.23,,2013-03-06 12:17:00,
2013-03-06 13:22:00,50.2,49.8,29.73,North,0,4.4,4.9,99,0.11,,,0.25,,2013-03-06 12:22:00,
2013-03-06 13:27:00,50.2,49.8,29.70,North,0,4.0,5.3,99,0.13,,,0.27,,2013-03-06 12:27:00,
2013-03-06 13:32:00,50.2,49.8,29.70,North,0,4.4,4.4,99,0.15,,,0.29,,2013-03-06 12:32:00,
2013-03-06 13:37:00,50.2,49.8,29.73,North,0,4.0,4.4,99,0.15,,,0.29,,2013-03-06 12:37:00,
2013-03-06 13:42:00,50.0,49.6,29.73,North,0,3.5,3.5,99,0.20,,,0.33,,2013-03-06 12:42:00,
2013-03-06 13:47:00,50.2,49.8,29.70,North,0,5.8,7.6,99,0.22,,,0.35,,2013-03-06 12:47:00,
2013-03-06 13:52:00,50.2,49.8,29.70,WNW,292,4.4,4.9,99,0.26,,,0.39,,2013-03-06 12:52:00,
2013-03-06 13:57:00,50.2,49.8,29.70,NNE,22,4.9,8.5,99,0.31,,,0.44,,2013-03-06 12:57:00,
2013-03-06 14:02:00,50.2,49.8,29.70,North,0,4.0,7.6,99,0.31,,,0.44,,2013-03-06 13:02:00,
2013-03-06 14:07:00,50.2,49.8,29.70,North,0,4.4,7.6,99,0.04,,,0.48,,2013-03-06 13:07:00,
2013-03-06 14:12:00,50.2,49.8,29.70,East,90,5.8,8.9,99,0.09,,,0.53,,2013-03-06 13:12:00,
2013-03-06 14:17:00,50.2,49.8,29.70,SW,225,5.3,8.0,99,0.09,,,0.53,,2013-03-06 13:17:00,
2013-03-06 14:22:00,50.2,49.8,29.70,North,0,3.5,7.6,99,0.13,,,0.57,,2013-03-06 13:22:00,
2013-03-06 14:27:00,50.2,49.8,29.70,North,0,4.9,6.2,99,0.13,,,0.57,,2013-03-06 13:27:00,
2013-03-06 14:32:00,50.4,50.0,29.70,North,0,6.2,10.7,99,0.20,,,0.64,,2013-03-06 13:32:00,
2013-03-06 14:37:00,50.4,50.0,29.67,North,0,4.9,4.9,99,0.20,,,0.64,,2013-03-06 13:37:00,
2013-03-06 14:42:00,50.4,50.0,29.67,North,0,5.8,6.7,99,0.24,,,0.68,,2013-03-06 13:42:00,
2013-03-06 14:47:00,50.4,50.0,29.70,North,0,4.9,6.2,99,0.24,,,0.68,,2013-03-06 13:47:00,
2013-03-06 14:52:00,50.4,50.0,29.70,North,0,3.1,6.2,99,0.24,,,0.68,,2013-03-06 13:52:00,
2013-03-06 14:57:00,50.4,50.0,29.67,East,90,3.5,6.2,99,0.33,,,0.77,,2013-03-06 13:57:00,
2013-03-06 15:02:00,50.4,50.0,29.67,North,0,3.1,5.8,99,0.33,,,0.77,,2013-03-06 14:02:00,
2013-03-06 15:07:00,50.4,50.0,29.67,SW,225,4.0,7.6,99,0.05,,,0.82,,2013-03-06 14:07:00,
2013-03-06 15:12:00,50.4,50.0,29.67,North,0,3.1,4.4,99,0.07,,,0.84,,2013-03-06 14:12:00,
2013-03-06 15:17:00,50.5,50.2,29.67,North,0,2.6,2.6,99,0.07,,,0.84,,2013-03-06 14:17:00,
2013-03-06 15:22:00,50.5,50.2,29.67,North,0,3.1,5.3,99,0.11,,,0.88,,2013-03-06 14:22:00,
2013-03-06 15:27:00,50.5,50.2,29.67,North,0,5.3,5.8,99,0.16,,,0.93,,2013-03-06 14:27:00,
2013-03-06 15:32:00,50.7,50.4,29.67,North,0,3.5,5.3,99,0.16,,,0.93,,2013-03-06 14:32:00,
2013-03-06 15:37:00,50.7,50.4,29.67,North,0,5.8,8.9,99,0.16,,,0.93,,2013-03-06 14:37:00,
2013-03-06 15:47:00,50.7,50.4,29.67,North,0,4.0,5.8,99,0.22,,,0.99,,2013-03-06 14:47:00,
2013-03-06 15:52:00,50.7,50.4,29.67,North,0,5.3,5.8,99,0.33,,,1.09,,2013-03-06 14:52:00,
2013-03-06 16:02:00,50.7,50.4,29.67,North,0,4.9,8.5,99,0.33,,,1.09,,2013-03-06 15:02:00,
2013-03-06 16:07:00,50.9,50.5,29.70,North,0,3.1,8.5,99,0.00,,,1.09,,2013-03-06 15:07:00,
2013-03-06 16:12:00,50.7,50.4,29.70,NE,45,3.5,3.5,99,0.00,,,1.09,,2013-03-06 15:12:00,
2013-03-06 16:17:00,50.9,50.5,29.67,North,0,3.1,4.4,99,0.11,,,1.20,,2013-03-06 15:17:00,
2013-03-06 16:22:00,50.9,50.5,29.67,North,0,3.1,3.1,99,0.11,,,1.20,,2013-03-06 15:22:00,
2013-03-06 16:27:00,50.9,50.5,29.67,North,0,2.6,10.7,99,0.11,,,1.20,,2013-03-06 15:27:00,
2013-03-06 16:32:00,51.1,50.7,29.67,WNW,292,3.5,5.3,99,0.11,,,1.20,,2013-03-06 15:32:00,
2013-03-06 16:37:00,51.1,50.7,29.67,SW,225,3.1,5.3,99,0.18,,,1.27,,2013-03-06 15:37:00,
2013-03-06 16:42:00,51.1,50.7,29.67,North,0,3.1,3.1,99,0.20,,,1.29,,2013-03-06 15:42:00,
2013-03-06 16:47:00,51.1,50.7,29.67,North,0,4.0,4.0,99,0.20,,,1.29,,2013-03-06 15:47:00,
2013-03-06 16:52:00,51.1,50.7,29.67,WNW,292,2.6,4.9,99,0.20,,,1.29,,2013-03-06 15:52:00,
2013-03-06 16:57:00,51.3,50.9,29.67,East,90,3.5,3.5,99,0.25,,,1.34,,2013-03-06 15:57:00,
2013-03-06 17:02:00,51.3,50.9,29.67,North,0,3.1,5.3,99,0.27,,,1.36,,2013-03-06 16:02:00,
2013-03-06 17:07:00,51.3,50.9,29.67,NE,45,2.6,4.0,99,0.04,,,1.40,,2013-03-06 16:07:00,
2013-03-06 17:12:00,51.3,50.9,29.67,North,0,3.1,4.0,99,0.07,,,1.43,,2013-03-06 16:12:00,
2013-03-06 17:17:00,51.4,51.1,29.67,North,0,3.1,3.1,99,0.07,,,1.43,,2013-03-06 16:17:00,
2013-03-06 17:22:00,51.4,51.1,29.67,North,0,2.2,2.2,99,0.07,,,1.43,,2013-03-06 16:22:00,
2013-03-06 17:27:00,51.4,51.1,29.67,NE,45,4.0,4.9,99,0.07,,,1.43,,2013-03-06 16:27:00,
2013-03-06 17:32:00,51.6,51.3,29.67,North,0,3.1,4.0,99,0.11,,,1.47,,2013-03-06 16:32:00,
2013-03-06 17:37:00,51.6,51.3,29.67,North,0,4.9,4.9,99,0.11,,,1.47,,2013-03-06 16:37:00,
2013-03-06 17:42:00,51.6,51.3,29.67,North,0,4.0,4.0,99,0.18,,,1.54,,2013-03-06 16:42:00,
2013-03-06 17:47:00,51.6,51.3,29.67,North,0,4.4,7.6,99,0.20,,,1.56,,2013-03-06 16:47:00,
2013-03-06 17:52:00,51.6,51.3,29.67,SW,225,2.6,4.9,99,0.24,,,1.60,,2013-03-06 16:52:00,
2013-03-06 17:57:00,51.6,51.3,29.67,North,0,3.5,6.7,99,0.29,,,1.64,,2013-03-06 16:57:00,
2013-03-06 18:02:00,51.8,51.4,29.67,North,0,3.5,5.8,99,0.34,,,1.70,,2013-03-06 17:02:00,
2013-03-06 18:07:00,51.8,51.4,29.67,North,0,2.6,5.8,99,0.05,,,1.75,,2013-03-06 17:07:00,
2013-03-06 18:12:00,51.8,51.4,29.67,North,0,3.1,3.1,99,0.12,,,1.82,,2013-03-06 17:12:00,
2013-03-06 18:17:00,51.8,51.4,29.67,North,0,2.6,2.6,99,0.16,,,1.86,,2013-03-06 17:17:00,
2013-03-06 18:22:00,51.8,51.4,29.67,East,90,1.7,4.9,99,0.25,,,1.95,,2013-03-06 17:22:00,
2013-03-06 18:27:00,52.0,51.6,29.67,North,0,3.1,3.5,99,0.25,,,1.95,,2013-03-06 17:27:00,
2013-03-06 18:37:00,52.0,51.6,29.67,NE,45,4.9,4.9,99,0.29,,,1.99,,2013-03-06 17:37:00,
2013-03-06 18:42:00,52.2,51.8,29.67,North,0,2.6,2.6,99,0.32,,,2.02,,2013-03-06 17:42:00,
2013-03-06 18:47:00,52.2,51.8,29.67,SW,225,3.1,5.8,99,0.33,,,2.04,,2013-03-06 17:47:00,
2013-03-06 18:52:00,52.2,51.8,29.67,North,0,3.5,3.5,99,0.33,,,2.04,,2013-03-06 17:52:00,
2013-03-06 18:57:00,52.2,51.8,29.67,North,0,4.0,4.4,99,0.39,,,2.10,,2013-03-06 17:57:00,
2013-03-06 19:02:00,52.3,52.0,29.67,East,90,4.0,5.3,99,0.39,,,2.10,,2013-03-06 18:02:00,
2013-03-06 19:07:00,52.3,52.0,29.67,SW,225,4.4,5.3,99,0.00,,,2.10,,2013-03-06 18:07:00,
2013-03-06 19:12:00,52.3,52.0,29.67,SW,225,5.8,7.6,99,0.03,,,2.13,,2013-03-06 18:12:00,
2013-03-06 19:17:00,52.3,52.0,29.67,North,0,3.5,9.3,99,0.03,,,2.13,,2013-03-06 18:17:00,
2013-03-06 19:22:00,52.5,52.2,29.67,South,180,6.7,9.8,99,0.03,,,2.13,,2013-03-06 18:22:00,
2013-03-06 19:27:00,52.5,52.2,29.67,SW,225,7.1,7.1,99,0.05,,,2.15,,2013-03-06 18:27:00,
2013-03-06 19:37:00,52.5,52.2,29.67,SW,225,9.3,12.5,99,0.07,,,2.17,,2013-03-06 18:37:00,
2013-03-06 19:42:00,52.5,52.2,29.67,South,180,7.1,7.1,99,0.07,,,2.17,,2013-03-06 18:42:00,
2013-03-06 19:47:00,52.5,52.2,29.67,SW,225,5.8,6.2,99,0.09,,,2.19,,2013-03-06 18:47:00,
2013-03-06 19:57:00,52.5,52.2,29.70,SW,225,5.8,10.7,99,0.14,,,2.24,,2013-03-06 18:57:00,
2013-03-06 20:02:00,52.5,52.2,29.70,SW,225,5.8,5.8,99,0.16,,,2.26,,2013-03-06 19:02:00,
2013-03-06 20:07:00,52.5,52.2,29.70,SW,225,4.9,6.7,99,0.02,,,2.28,,2013-03-06 19:07:00,
2013-03-06 20:12:00,52.5,52.2,29.70,SW,225,5.3,5.8,99,0.02,,,2.28,,2013-03-06 19:12:00,
2013-03-06 20:17:00,52.5,52.2,29.67,SW,225,5.3,5.8,99,0.04,,,2.30,,2013-03-06 19:17:00,
2013-03-06 20:22:00,52.5,52.2,29.67,ENE,67,0.8,3.1,99,0.04,,,2.30,,2013-03-06 19:22:00,
2013-03-06 20:27:00,52.5,52.2,29.70,NE,45,1.7,3.5,99,0.04,,,2.30,,2013-03-06 19:27:00,
2013-03-06 20:32:00,52.5,52.2,29.70,SW,225,3.1,5.3,99,0.04,,,2.30,,2013-03-06 19:32:00,
2013-03-06 20:37:00,52.5,52.2,29.70,East,90,2.2,7.6,99,0.04,,,2.30,,2013-03-06 19:37:00,
2013-03-06 20:42:00,52.5,52.2,29.70,SW,225,5.3,5.3,99,0.07,,,2.32,,2013-03-06 19:42:00,
2013-03-06 20:47:00,52.5,52.2,29.67,East,90,3.1,3.1,99,0.09,,,2.34,,2013-03-06 19:47:00,
2013-03-06 20:57:00,52.5,52.2,29.70,East,90,2.6,0.0,99,0.09,,,2.34,,2013-03-06 19:57:00,
2013-03-06 21:02:00,52.5,52.2,29.70,East,90,2.6,0.0,99,0.11,,,2.36,,2013-03-06 20:02:00,
2013-03-06 21:07:00,52.5,52.2,29.70,SW,225,6.2,6.2,99,0.00,,,2.36,,2013-03-06 20:07:00,
2013-03-06 21:12:00,52.5,52.2,29.70,SSE,157,3.1,5.3,99,0.02,,,2.38,,2013-03-06 20:12:00,
2013-03-06 21:17:00,52.5,52.2,29.70,SW,225,4.9,5.8,99,0.04,,,2.40,,2013-03-06 20:17:00,
2013-03-06 21:22:00,52.5,52.2,29.70,SW,225,7.1,10.2,99,0.07,,,2.43,,2013-03-06 20:22:00,
2013-03-06 21:27:00,52.7,52.3,29.70,SW,225,1.7,10.2,99,0.07,,,2.43,,2013-03-06 20:27:00,
2013-03-06 21:32:00,52.7,52.3,29.70,SW,225,3.1,8.9,99,0.07,,,2.43,,2013-03-06 20:32:00,
2013-03-06 21:37:00,52.7,52.3,29.70,SW,225,5.3,8.0,99,0.07,,,2.43,,2013-03-06 20:37:00,
2013-03-06 21:42:00,52.7,52.3,29.70,SW,225,3.1,8.0,99,0.07,,,2.43,,2013-03-06 20:42:00,
2013-03-06 21:47:00,52.7,52.3,29.70,SSE,157,4.4,4.4,99,0.07,,,2.43,,2013-03-06 20:47:00,
2013-03-06 21:52:00,52.7,52.3,29.70,SW,225,3.1,3.1,99,0.07,,,2.43,,2013-03-06 20:52:00,
2013-03-06 21:57:00,52.7,52.3,29.70,SW,225,3.1,4.0,99,0.07,,,2.43,,2013-03-06 20:57:00,
2013-03-06 22:02:00,52.7,52.3,29.70,SW,225,4.9,4.9,99,0.07,,,2.43,,2013-03-06 21:02:00,
2013-03-06 22:07:00,52.7,52.3,29.70,SW,225,3.5,5.3,99,0.00,,,2.43,,2013-03-06 21:07:00,
2013-03-06 22:12:00,52.7,52.3,29.70,SW,225,4.4,7.6,99,0.00,,,2.43,,2013-03-06 21:12:00,
2013-03-06 22:17:00,52.7,52.3,29.70,South,180,3.5,8.0,99,0.00,,,2.43,,2013-03-06 21:17:00,
2013-03-06 22:22:00,52.7,52.3,29.70,SW,225,4.4,5.3,99,-99.99,,,2.43,,2013-03-06 21:22:00,
2013-03-06 22:27:00,52.7,52.3,29.67,SW,225,0.0,0.0,99,-99.99,,,2.43,,2013-03-06 21:27:00,
2013-03-06 22:32:00,52.5,52.2,29.67,SSE,157,1.7,2.2,99,-99.99,,,2.43,,2013-03-06 21:32:00,
2013-03-06 22:37:00,52.7,52.3,29.70,SW,225,3.5,6.7,99,-99.99,,,2.43,,2013-03-06 21:37:00,
2013-03-06 22:42:00,52.7,52.3,29.70,SW,225,3.5,4.0,99,-99.99,,,2.43,,2013-03-06 21:42:00,
2013-03-06 22:47:00,52.7,52.3,29.70,SW,225,3.5,4.9,99,-99.99,,,2.43,,2013-03-06 21:47:00,
2013-03-06 22:52:00,52.7,52.3,29.70,East,90,1.7,3.1,99,-99.99,,,2.43,,2013-03-06 21:52:00,
2013-03-06 23:02:00,52.7,52.3,29.67,SW,225,0.4,1.3,99,-99.99,,,2.43,,2013-03-06 22:02:00,
2013-03-06 23:07:00,52.7,52.3,29.70,SW,225,1.7,2.6,99,-99.99,,,2.43,,2013-03-06 22:07:00,
2013-03-06 23:12:00,52.7,52.3,29.70,East,90,0.4,0.0,99,-99.99,,,2.43,,2013-03-06 22:12:00,
2013-03-06 23:17:00,52.7,52.3,29.70,East,90,0.4,0.8,99,-99.99,,,2.43,,2013-03-06 22:17:00,
2013-03-06 23:22:00,52.7,52.3,29.70,North,0,0.4,2.6,99,-99.99,,,2.43,,2013-03-06 22:22:00,
2013-03-06 23:27:00,52.7,52.3,29.70,SW,225,0.4,0.0,99,-99.99,,,2.74,,2013-03-06 22:27:00,
2013-03-06 23:32:00,52.7,52.3,29.70,SSE,157,0.4,1.3,99,-99.99,,,2.74,,2013-03-06 22:32:00,
2013-03-06 23:37:00,52.7,52.3,29.70,South,180,3.1,4.4,99,-99.99,,,2.74,,2013-03-06 22:37:00,
2013-03-06 23:42:00,52.7,52.3,29.70,SW,225,1.3,2.6,99,-99.99,,,2.74,,2013-03-06 22:42:00,
2013-03-06 23:47:00,52.7,52.3,29.70,ENE,67,1.3,2.2,99,-99.99,,,2.74,,2013-03-06 22:47:00,
2013-03-06 23:52:00,52.7,52.3,29.70,East,90,1.3,1.3,99,-99.99,,,2.74,,2013-03-06 22:52:00,
2013-03-06 23:57:00,52.7,52.3,29.70,South,180,0.8,1.7,99,-99.99,,,2.74,,2013-03-06 22:57:00,